SCP
0 -0 -0 -0 -0 -0 -0 -0 -0 -0 0 0 0 0 0 0 0 0 0 0 0 0 0 0 0 0 0 0 0 0 0 0 0 0 0 0 0 0 0 0 0 0 0
-0 -0 -0 -0 -0 -0 -0 0 0 0 -0 0 0 0 0 0 0 0 0 0 0 0 0 0 0 0 0 0 0 0 0 0 0 0 0 0 0 0 0 0 0 0 0
-0 -0 0 -0 -0 0 -0 0 0 0 0 0 0 0 0 0 0 0 0 0 0 0 0 0 0 0 0 0 0 0 0 0 0 0 0 0 0 0 0 0 0 0 0
0 0 0 -0 0 0 0 0 0 0 0 0 0 0 0 0 0 0 0 0 0 0 0 0 0 0 0 0 0 0 0 0 0 0 0 0 0 0 0 0 0 0 0
0 0 0 0 0 0 0 0 0 0 0 0 0 0 0 0 0 0 0 0 0 0 0 0 0 0 0 0 0 0 0 0 0 0 0 0 0 0 0 0 0 0 0
0 0 0 0 0 0 0 0 0 0 0 0 0 0 0 0 0 0 0 0 0 0 0 0 0 0 0 0 0 0 0 0 0 0 0 0 0 0 0 0 0 0 0
0 0 0 0 0 0 0 0 0 0 0 0 0 0 0 0 0 0 0 0 0 0 0 0 0 0 0 0 0 0 0 0 0 0 0 0 0 0 0 0 0 0 0
0 0 0 0 0 0 0 0 0 0 0 0 0 0 0 0 0 0 0 0 0 0 0 0 0 0 0 0 0 0 0 0 0 0 0 0 0 0 0 0 0 0 0
0 0 0 0 0 0 0 0 0 0 0 0 0 0 0 0 0 0 0 0 0 0 0 0 0 0 0 0 0 0 0 0 0 0 0 0 0 0 0 0 0 0 0
0 0 0 0 0 0 0 0 0 0 0 0 0 0 0 0 0 0 0 0 0 0 0 0 0 0 0 0 0 0 0 0 0 0 0 0 0 0 0 0 0 0 0
0 0 0 0 0 0 0 0 0 0 0 0 0 0 0 0 0 0 0 0 0 0 0 0 0 0 0 0 0 0 0 0 0 0 0 0 0 0 0 0 0 0 0
0 0 0 0 0 0 0 0 0 0 0 0 0 0 -0 0 0 0 0 0 0 0 0 0 0 0 0 0 0 0 0 0 0 0 0 0 0 0 0 0 0 0 0
0 0 0 0 0 0 0 0 0 0 0 0 0 0 0 -0 -0 0 0 0 0 0 0 0 0 0 0 0 0 0 0 0 0 0 0 0 0 0 0 0 0 0 0
0 0 0 0 0 0 0 0 -0 -0 -0 -0 -0 0 -0 -0 0 -0 0 0 0 0 0 0 0 0 0 0 0 0 0 0 0 0 0 0 0 0 0 0 -0 0 0
0 0 0 0 0 0 0 0 0 -0 0 -0 0 0 0 -0 -0 -0 -0 -0 0 0 0 0 0 0 0 0 0 0 0 0 0 0 0 0 0 0 0 0 -0 -0 0
0 0 0 0 0 0 0 0 0 0 0 0 0 0 0 0 0 -0 -0 -0 -0 0 0 0 0 -0 0 0 0 0 0 0 0 0 0 0 0 0 0 0 0 0 -0
0 0 0 0 0 0 0 0 0 0 0 0 0 0 0 0 0 0 -0 -0 -0 -0 0 0 0 0 0 0 0 0 0 0 0 0 0 0 0 0 0 0 0 0 0
0 0 0 0 0 0 0 0 0 0 0 0 0 0 0 0 0 0 -0 -0 -0 -0 -0 0 0 0 0 -0 0 0 0 0 0 0 0 0 0 0 0 0 0 0 0
0 0 0 0 0 0 0 0 0 0 0 0 0 0 0 0 0 0 -0 -0 -0 -0 -0 -0 0 0 0 0 0 0 0 0 0 0 0 0 0 0 0 0 0 0 0
0 0 0 0 0 0 0 0 0 0 0 0 0 0 0 0 0 0 0 -0 -0 -0 -0 0 0 0 0 0 0 0 0 0 0 0 0 0 0 0 0 0 0 0 0
0 0 0 0 0 0 0 0 0 0 0 0 0 0 0 0 0 0 0 0 0 -0 -0 -0 0 0 0 0 0 0 0 0 0 0 0 -0 0 0 -0 0 0 0 0
0 0 0 0 0 0 0 0 0 0 0 0 0 0 0 0 0 0 0 0 0 -0 -0 -0 0 0 0 0 0 0 0 0 0 0 0 0 0 0 0 0 0 0 0
0 0 0 0 0 0 0 0 0 0 0 0 0 0 0 0 0 0 0 0 0 -0 -0 -0 -0 0 0 0 0 0 0 -0 -0 0 0 0 0 0 0 0 0 0 0
0 0 0 0 0 0 0 0 0 0 0 0 0 0 0 0 0 0 0 0 0 0 -0 -0 -0 0 0 0 0 0 0 0 0 0 0 0 0 0 0 0 0 0 0
0 0 0 0 0 0 0 0 0 0 0 0 0 0 0 0 0 0 0 0 0 0 0 -0 0 -0 -0 0 0 0 0 0 0 0 0 0 0 0 0 0 0 0 0
0 0 0 0 0 0 0 0 0 0 0 0 0 0 0 0 0 0 0 0 0 0 0 -0 -0 -0 -0 -0 0 0 0 0 0 0 0 0 0 0 0 0 0 0 0
Wind_Speed_500mb
66 65 63 58 54 51 46 44 41 40 42 49 49 50 50 50 51 53 51 48 48 32 22 35 40 45 41 39 37 35 39 40 35 35 35 34 34 28 27 26 23 20 18
54 60 60 55 51 47 47 45 45 44 44 47 48 47 48 48 46 49 49 46 43 49 30 29 40 36 48 47 38 40 41 43 43 43 41 40 40 32 30 30 28 25 21
54 54 53 52 54 51 47 49 47 46 42 45 47 46 44 46 47 47 50 51 46 42 49 31 33 36 34 49 46 42 42 45 41 36 31 32 33 33 31 32 28 26 24
45 47 49 48 47 48 49 48 49 49 45 43 46 48 48 47 47 44 46 49 47 44 44 45 40 38 42 46 54 44 44 49 48 41 36 33 34 33 34 33 31 30 28
43 48 50 52 52 52 49 47 49 51 51 47 44 50 52 53 51 48 47 48 50 43 43 41 45 43 40 44 54 56 49 54 58 48 41 37 33 30 32 34 31 32 26
43 48 52 50 47 48 51 48 49 50 52 51 42 41 48 52 54 52 48 46 45 44 45 41 38 43 44 42 44 62 57 59 64 52 40 35 33 32 26 29 30 24 27
46 49 50 52 50 48 56 54 48 44 51 48 48 44 44 46 53 54 50 46 42 44 46 50 43 43 40 40 40 50 68 67 73 61 52 49 43 41 30 26 28 29 29
45 48 50 52 51 49 52 51 45 49 49 54 56 49 50 48 52 57 53 50 46 44 46 49 49 48 44 40 40 48 71 73 88 65 61 57 56 46 35 32 28 31 29
43 48 51 53 56 55 60 54 48 54 55 55 58 58 53 53 56 58 56 54 52 47 46 48 51 52 48 40 40 47 57 68 92 70 59 66 55 47 37 28 33 34 36
42 48 52 53 56 59 61 61 63 61 60 58 58 56 57 52 53 55 59 56 56 52 48 50 50 49 47 38 41 33 43 67 81 73 68 67 54 45 34 37 38 34 31
44 48 52 54 56 59 60 61 64 66 69 70 70 68 63 61 60 55 53 56 53 53 48 49 50 48 43 38 40 36 40 63 80 60 67 63 50 38 45 47 37 36 34
46 49 51 52 53 56 57 57 60 65 71 73 76 75 72 66 62 61 56 52 53 53 50 45 45 44 39 37 36 29 25 37 86 70 62 60 42 37 54 44 31 25 34
40 42 46 48 49 51 56 59 63 66 69 71 74 76 75 75 74 68 63 58 52 53 56 48 40 39 38 39 27 12 5 9 43 65 48 42 41 41 51 38 22 20 35
37 38 40 43 44 45 47 55 59 65 69 73 74 74 79 78 76 77 72 63 56 48 51 51 43 37 30 29 29 19 10 15 16 35 43 34 42 46 50 34 18 34 30
32 34 37 39 40 40 43 48 53 59 63 65 69 72 73 74 75 77 79 75 61 52 45 50 44 39 30 23 22 21 12 10 32 45 46 39 36 42 47 34 25 25 20
27 31 33 35 36 37 42 45 51 56 59 63 65 63 66 68 72 73 77 73 66 61 53 41 43 39 31 24 21 18 16 21 2 14 35 50 54 46 50 36 38 35 21
26 27 32 34 34 37 40 43 44 46 52 60 62 61 63 66 67 70 72 73 66 58 55 42 34 37 34 25 21 18 14 23 5 11 22 35 39 33 44 38 45 33 32
19 25 30 32 34 36 39 42 43 44 47 52 56 60 61 62 65 67 69 70 68 60 55 47 36 34 33 30 23 26 20 21 21 22 16 24 39 34 39 41 49 42 30
19 24 28 33 34 37 40 44 44 42 43 49 52 55 57 59 64 65 67 70 68 66 66 53 41 33 31 31 29 25 24 25 24 23 11 13 39 34 17 39 55 45 39
20 23 26 30 32 36 39 42 44 44 43 46 52 54 55 58 60 63 64 67 71 65 71 63 48 34 23 36 30 28 22 14 12 35 38 29 21 29 23 36 49 47 45
20 23 25 30 33 35 41 48 50 49 46 46 48 52 54 54 57 60 61 62 64 65 63 71 69 53 32 38 30 25 19 16 17 17 17 14 26 33 21 18 35 44 35
21 20 22 29 32 34 37 42 46 44 42 39 42 45 49 49 51 55 57 59 58 62 62 60 71 81 53 31 35 18 10 16 15 20 26 27 23 19 11 15 17 33 33
18 17 20 27 28 32 36 40 41 41 42 45 47 47 48 49 49 50 54 56 58 56 60 56 59 69 74 46 23 12 9 7 23 13 19 20 26 30 30 25 20 19 23
11 12 18 23 25 29 34 38 42 46 49 46 47 46 46 49 49 49 50 53 55 57 54 54 51 55 64 73 48 17 10 22 8 9 7 12 16 28 36 33 32 32 28
9 12 16 20 23 26 32 39 40 41 40 39 40 41 43 46 51 51 49 50 53 55 55 54 49 48 50 63 68 42 19 15 18 17 13 19 19 15 19 21 22 29 40
10 12 14 18 21 25 33 38 38 40 41 42 43 44 45 47 48 50 52 48 49 52 55 55 53 46 46 52 59 55 32 20 21 13 10 12 19 21 19 20 21 21 30
Wind_Direction_500mb
340 339 345 352 355 353 351 349 350 351 356 357 355 353 359 355 357 358 354 357 355 326 303 289 288 270 265 266 260 247 244 238 239 236 233 228 226 215 210 208 212 228 223
334 341 350 355 358 358 354 353 354 354 356 353 355 349 351 351 347 348 351 353 356 348 323 299 281 292 266 265 267 248 245 244 239 238 238 234 231 232 212 218 223 232 242
346 351 355 0 1 2 3 3 2 356 357 353 355 349 347 348 345 343 342 340 348 347 334 314 304 289 289 265 263 255 244 242 233 227 230 224 226 222 212 220 226 231 237
359 5 8 8 7 8 12 9 5 5 2 2 354 347 346 344 344 345 338 333 336 336 336 327 310 303 290 272 256 255 246 240 229 225 224 222 221 223 220 219 222 232 240
19 20 21 20 15 15 15 13 7 6 3 359 359 353 349 347 348 344 339 337 337 329 329 330 323 320 295 289 263 251 248 240 233 221 225 227 225 232 220 215 218 228 229
30 28 28 27 22 22 19 19 13 12 11 5 358 354 349 344 342 349 341 341 336 335 330 328 329 319 306 303 285 249 247 241 234 228 211 218 228 235 222 204 205 188 176
33 29 27 25 27 26 17 21 13 10 4 4 357 348 348 347 341 339 347 341 339 336 332 330 321 312 303 309 303 271 241 239 234 223 199 212 218 234 226 215 203 185 189
31 26 25 26 24 20 20 14 9 9 3 357 353 353 351 352 344 341 344 345 344 336 328 326 329 320 306 302 293 297 242 235 231 219 199 210 219 231 226 216 194 186 183
32 27 23 21 22 19 16 8 11 12 9 3 359 355 352 353 351 350 349 347 349 341 336 328 326 322 315 307 300 308 250 235 236 205 201 212 218 222 225 202 183 189 192
32 27 23 23 24 21 16 12 14 16 13 9 5 1 357 348 346 351 352 347 347 343 341 339 333 327 319 315 313 315 273 227 232 199 197 211 213 212 198 187 189 191 192
30 28 27 27 27 22 18 17 16 15 14 11 9 6 357 355 356 350 344 342 340 342 340 341 340 336 336 326 320 314 323 215 212 223 198 210 199 197 180 190 195 192 197
28 28 28 27 25 24 20 20 19 19 17 14 10 9 8 1 351 349 345 345 343 334 336 338 338 337 337 337 324 319 325 196 210 203 188 186 181 180 186 190 199 196 195
28 30 29 27 25 26 21 25 21 20 15 11 7 4 4 6 3 355 347 348 352 335 331 338 336 340 344 340 322 343 3 125 156 179 183 182 176 180 191 189 212 202 199
29 31 31 29 23 27 24 22 18 15 9 7 6 5 4 5 4 3 358 347 345 352 338 335 338 338 343 334 326 302 154 165 115 158 166 163 165 181 189 179 213 176 187
28 29 28 25 25 24 21 16 12 9 6 1 0 1 1 1 2 2 360 357 345 341 346 341 334 334 337 328 322 304 241 95 190 177 188 180 173 189 193 191 185 177 208
22 24 23 22 20 17 15 12 8 8 6 3 0 360 359 358 358 358 359 357 357 349 341 344 332 329 334 327 327 297 266 271 91 188 198 184 184 187 192 194 185 176 167
18 10 15 17 14 13 15 11 8 10 3 4 5 5 2 359 358 356 359 359 0 354 340 340 334 322 327 322 316 306 256 272 258 235 154 190 198 226 190 193 187 178 163
10 6 3 10 10 14 12 14 12 11 9 7 7 7 7 4 2 1 2 4 2 6 350 338 341 331 325 329 330 293 289 258 252 254 225 195 207 225 202 188 186 175 151
359 355 357 3 9 10 10 11 14 13 8 3 2 5 5 5 7 5 3 6 2 8 8 349 342 342 340 329 324 317 310 271 260 250 231 201 202 217 190 210 171 158 158
348 346 352 358 3 8 4 8 11 9 6 0 0 2 2 3 5 7 6 4 9 5 17 9 352 348 334 340 327 325 302 306 298 258 263 267 253 203 191 164 156 161 165
333 340 348 352 5 2 5 3 5 5 0 357 357 354 356 359 2 6 8 7 6 8 11 15 14 5 356 355 331 329 318 304 300 291 275 288 280 262 256 185 156 174 163
320 335 345 352 359 360 1 3 2 1 0 359 360 359 357 358 2 5 9 11 9 8 6 13 12 13 3 8 340 320 327 329 305 283 280 273 272 275 270 238 209 188 179
308 337 339 349 355 354 357 355 359 358 0 1 5 4 3 4 4 6 9 11 13 14 13 13 10 14 9 3 359 319 338 336 327 320 282 273 273 266 271 257 255 223 216
308 322 333 346 350 351 353 357 1 359 356 359 358 360 2 3 6 6 9 11 12 15 16 15 13 13 12 17 3 354 277 303 304 318 334 308 291 272 266 260 259 259 248
294 322 329 344 345 350 352 353 356 355 353 355 357 356 359 2 7 10 8 9 11 12 16 16 17 15 9 11 7 3 15 313 303 274 285 305 313 309 282 272 261 264 260
275 302 326 340 346 347 345 347 351 351 349 352 355 356 358 359 4 9 10 8 10 11 12 16 17 16 21 6 10 12 359 351 331 312 292 289 302 300 303 273 252 240 243
Wind_Speed_850mb
66 65 63 58 54 51 46 44 41 40 42 49 49 50 50 50 51 53 51 48 48 32 22 35 40 45 41 39 37 35 39 40 35 35 35 34 34 28 27 26 23 20 18
54 60 60 55 51 47 47 45 45 44 44 47 48 47 48 48 46 49 49 46 43 49 30 29 40 36 48 47 38 40 41 43 43 43 41 40 40 32 30 30 28 25 21
54 54 53 52 54 51 47 49 47 46 42 45 47 46 44 46 47 47 50 51 46 42 49 31 33 36 34 49 46 42 42 45 41 36 31 32 33 33 31 32 28 26 24
45 47 49 48 47 48 49 48 49 49 45 43 46 48 48 47 47 44 46 49 47 44 44 45 40 38 42 46 54 44 44 49 48 41 36 33 34 33 34 33 31 30 28
43 48 50 52 52 52 49 47 49 51 51 47 44 50 52 53 51 48 47 48 50 43 43 41 45 43 40 44 54 56 49 54 58 48 41 37 33 30 32 34 31 32 26
43 48 52 50 47 48 51 48 49 50 52 51 42 41 48 52 54 52 48 46 45 44 45 41 38 43 44 42 44 62 57 59 64 52 40 35 33 32 26 29 30 24 27
46 49 50 52 50 48 56 54 48 44 51 48 48 44 44 46 53 54 50 46 42 44 46 50 43 43 40 40 40 50 68 67 73 61 52 49 43 41 30 26 28 29 29
45 48 50 52 51 49 52 51 45 49 49 54 56 49 50 48 52 57 53 50 46 44 46 49 49 48 44 40 40 48 71 73 88 65 61 57 56 46 35 32 28 31 29
43 48 51 53 56 55 60 54 48 54 55 55 58 58 53 53 56 58 56 54 52 47 46 48 51 52 48 40 40 47 57 68 92 70 59 66 55 47 37 28 33 34 36
42 48 52 53 56 59 61 61 63 61 60 58 58 56 57 52 53 55 59 56 56 52 48 50 50 49 47 38 41 33 43 67 81 73 68 67 54 45 34 37 38 34 31
44 48 52 54 56 59 60 61 64 66 69 70 70 68 63 61 60 55 53 56 53 53 48 49 50 48 43 38 40 36 40 63 80 60 67 63 50 38 45 47 37 36 34
46 49 51 52 53 56 57 57 60 65 71 73 76 75 72 66 62 61 56 52 53 53 50 45 45 44 39 37 36 29 25 37 86 70 62 60 42 37 54 44 31 25 34
40 42 46 48 49 51 56 59 63 66 69 71 74 76 75 75 74 68 63 58 52 53 56 48 40 39 38 39 27 12 5 9 43 65 48 42 41 41 51 38 22 20 35
37 38 40 43 44 45 47 55 59 65 69 73 74 74 79 78 76 77 72 63 56 48 51 51 43 37 30 29 29 19 10 15 16 35 43 34 42 46 50 34 18 34 30
32 34 37 39 40 40 43 48 53 59 63 65 69 72 73 74 75 77 79 75 61 52 45 50 44 39 30 23 22 21 12 10 32 45 46 39 36 42 47 34 25 25 20
27 31 33 35 36 37 42 45 51 56 59 63 65 63 66 68 72 73 77 73 66 61 53 41 43 39 31 24 21 18 16 21 2 14 35 50 54 46 50 36 38 35 21
26 27 32 34 34 37 40 43 44 46 52 60 62 61 63 66 67 70 72 73 66 58 55 42 34 37 34 25 21 18 14 23 5 11 22 35 39 33 44 38 45 33 32
19 25 30 32 34 36 39 42 43 44 47 52 56 60 61 62 65 67 69 70 68 60 55 47 36 34 33 30 23 26 20 21 21 22 16 24 39 34 39 41 49 42 30
19 24 28 33 34 37 40 44 44 42 43 49 52 55 57 59 64 65 67 70 68 66 66 53 41 33 31 31 29 25 24 25 24 23 11 13 39 34 17 39 55 45 39
20 23 26 30 32 36 39 42 44 44 43 46 52 54 55 58 60 63 64 67 71 65 71 63 48 34 23 36 30 28 22 14 12 35 38 29 21 29 23 36 49 47 45
20 23 25 30 33 35 41 48 50 49 46 46 48 52 54 54 57 60 61 62 64 65 63 71 69 53 32 38 30 25 19 16 17 17 17 14 26 33 21 18 35 44 35
21 20 22 29 32 34 37 42 46 44 42 39 42 45 49 49 51 55 57 59 58 62 62 60 71 81 53 31 35 18 10 16 15 20 26 27 23 19 11 15 17 33 33
18 17 20 27 28 32 36 40 41 41 42 45 47 47 48 49 49 50 54 56 58 56 60 56 59 69 74 46 23 12 9 7 23 13 19 20 26 30 30 25 20 19 23
11 12 18 23 25 29 34 38 42 46 49 46 47 46 46 49 49 49 50 53 55 57 54 54 51 55 64 73 48 17 10 22 8 9 7 12 16 28 36 33 32 32 28
9 12 16 20 23 26 32 39 40 41 40 39 40 41 43 46 51 51 49 50 53 55 55 54 49 48 50 63 68 42 19 15 18 17 13 19 19 15 19 21 22 29 40
10 12 14 18 21 25 33 38 38 40 41 42 43 44 45 47 48 50 52 48 49 52 55 55 53 46 46 52 59 55 32 20 21 13 10 12 19 21 19 20 21 21 30
Wind_Direction_850mb
340 339 345 352 355 353 351 349 350 351 356 357 355 353 359 355 357 358 354 357 355 326 303 289 288 270 265 266 260 247 244 238 239 236 233 228 226 215 210 208 212 228 223
334 341 350 355 358 358 354 353 354 354 356 353 355 349 351 351 347 348 351 353 356 348 323 299 281 292 266 265 267 248 245 244 239 238 238 234 231 232 212 218 223 232 242
346 351 355 0 1 2 3 3 2 356 357 353 355 349 347 348 345 343 342 340 348 347 334 314 304 289 289 265 263 255 244 242 233 227 230 224 226 222 212 220 226 231 237
359 5 8 8 7 8 12 9 5 5 2 2 354 347 346 344 344 345 338 333 336 336 336 327 310 303 290 272 256 255 246 240 229 225 224 222 221 223 220 219 222 232 240
19 20 21 20 15 15 15 13 7 6 3 359 359 353 349 347 348 344 339 337 337 329 329 330 323 320 295 289 263 251 248 240 233 221 225 227 225 232 220 215 218 228 229
30 28 28 27 22 22 19 19 13 12 11 5 358 354 349 344 342 349 341 341 336 335 330 328 329 319 306 303 285 249 247 241 234 228 211 218 228 235 222 204 205 188 176
33 29 27 25 27 26 17 21 13 10 4 4 357 348 348 347 341 339 347 341 339 336 332 330 321 312 303 309 303 271 241 239 234 223 199 212 218 234 226 215 203 185 189
31 26 25 26 24 20 20 14 9 9 3 357 353 353 351 352 344 341 344 345 344 336 328 326 329 320 306 302 293 297 242 235 231 219 199 210 219 231 226 216 194 186 183
32 27 23 21 22 19 16 8 11 12 9 3 359 355 352 353 351 350 349 347 349 341 336 328 326 322 315 307 300 308 250 235 236 205 201 212 218 222 225 202 183 189 192
32 27 23 23 24 21 16 12 14 16 13 9 5 1 357 348 346 351 352 347 347 343 341 339 333 327 319 315 313 315 273 227 232 199 197 211 213 212 198 187 189 191 192
30 28 27 27 27 22 18 17 16 15 14 11 9 6 357 355 356 350 344 342 340 342 340 341 340 336 336 326 320 314 323 215 212 223 198 210 199 197 180 190 195 192 197
28 28 28 27 25 24 20 20 19 19 17 14 10 9 8 1 351 349 345 345 343 334 336 338 338 337 337 337 324 319 325 196 210 203 188 186 181 180 186 190 199 196 195
28 30 29 27 25 26 21 25 21 20 15 11 7 4 4 6 3 355 347 348 352 335 331 338 336 340 344 340 322 343 3 125 156 179 183 182 176 180 191 189 212 202 199
29 31 31 29 23 27 24 22 18 15 9 7 6 5 4 5 4 3 358 347 345 352 338 335 338 338 343 334 326 302 154 165 115 158 166 163 165 181 189 179 213 176 187
28 29 28 25 25 24 21 16 12 9 6 1 0 1 1 1 2 2 360 357 345 341 346 341 334 334 337 328 322 304 241 95 190 177 188 180 173 189 193 191 185 177 208
22 24 23 22 20 17 15 12 8 8 6 3 0 360 359 358 358 358 359 357 357 349 341 344 332 329 334 327 327 297 266 271 91 188 198 184 184 187 192 194 185 176 167
18 10 15 17 14 13 15 11 8 10 3 4 5 5 2 359 358 356 359 359 0 354 340 340 334 322 327 322 316 306 256 272 258 235 154 190 198 226 190 193 187 178 163
10 6 3 10 10 14 12 14 12 11 9 7 7 7 7 4 2 1 2 4 2 6 350 338 341 331 325 329 330 293 289 258 252 254 225 195 207 225 202 188 186 175 151
359 355 357 3 9 10 10 11 14 13 8 3 2 5 5 5 7 5 3 6 2 8 8 349 342 342 340 329 324 317 310 271 260 250 231 201 202 217 190 210 171 158 158
348 346 352 358 3 8 4 8 11 9 6 0 0 2 2 3 5 7 6 4 9 5 17 9 352 348 334 340 327 325 302 306 298 258 263 267 253 203 191 164 156 161 165
333 340 348 352 5 2 5 3 5 5 0 357 357 354 356 359 2 6 8 7 6 8 11 15 14 5 356 355 331 329 318 304 300 291 275 288 280 262 256 185 156 174 163
320 335 345 352 359 360 1 3 2 1 0 359 360 359 357 358 2 5 9 11 9 8 6 13 12 13 3 8 340 320 327 329 305 283 280 273 272 275 270 238 209 188 179
308 337 339 349 355 354 357 355 359 358 0 1 5 4 3 4 4 6 9 11 13 14 13 13 10 14 9 3 359 319 338 336 327 320 282 273 273 266 271 257 255 223 216
308 322 333 346 350 351 353 357 1 359 356 359 358 360 2 3 6 6 9 11 12 15 16 15 13 13 12 17 3 354 277 303 304 318 334 308 291 272 266 260 259 259 248
294 322 329 344 345 350 352 353 356 355 353 355 357 356 359 2 7 10 8 9 11 12 16 16 17 15 9 11 7 3 15 313 303 274 285 305 313 309 282 272 261 264 260
275 302 326 340 346 347 345 347 351 351 349 352 355 356 358 359 4 9 10 8 10 11 12 16 17 16 21 6 10 12 359 351 331 312 292 289 302 300 303 273 252 240 243